Location: ČR
(50.0000°N, 15.0000°E)
Time: 13:45:52
(UTC+00:00)

Explorer 7 - Pass Details

Date: 28 October 2021
Orbit: 483 x 675 km, 50.3° (Epoch: 27 November)

Event Time Altitude Azimuth Distance (km) Brightness Sun altitude
Rises 22:48:01 0° 283° (WNW) 2,738 - -53.4°
Reaches altitude 10° 22:50:12 10° 281° (W) 1,873 - -53.4°
Maximum altitude 22:54:28 68° 199° (SSW) 646 - -53.4°
Drops below altitude 10° 22:59:00 10° 117° (ESE) 1,990 - -53.3°
Sets 23:01:23 0° 115° (ESE) 2,925 - -53.3°
